CZ-6A DEB, 56249

Orbit data source: Space-Track

CZ-6A DEB, 56249 is space debris in SSO originally from a launch on Fri, 11 Nov 2022 UTC launched from the Taiyaun Space Center, China (TSC). Debris objects in space refer to the collection of defunct objects orbiting the Earth. Examples of debris include non-operational satellites, rocket bodies, and fragments generated from explosions, collisions, or faulty payload assembly.

Loading next visibility...
Identifier
56249, 2022-151ABR
Orbit
SSO
Country
Flag of CNCN / PRC
Related business
Manufacturer
SAST
Mission
Spacecraft
Bus & Motor
Unknown
Mass
Unknown
Launch date (UTC)
2022-11-11 (4 years ago)
Launch vehicle
Unknown
Launch site
Taiyaun Space Center, China (TSC)
Object type
Payload
Rocket body
Debris
Shape & HBR
Unknown shape, 0.1 m
Radar Cross Section
Small (<0.1 m²)

Expand to show TLE details & history
Last TLE update: 2 days ago

TLE from 2 days ago
0 CZ-6A DEB
1 56249U 22151ABR 26171.10366620  .00001071  00000-0  46860-3 0  9994
2 56249  98.7614 192.0354 0044367 332.4352  27.4475 14.25349308175015
Epoch: 2026-06-20T02:29Z
TLE epoch observation values (Epoch: 2026-06-20T02:29:16.759Z)
Latitude
-0.00004°
Longitude
-113.60751°
Altitude
781.972 km
Speed
7.478 km/s
True Right ascension
12h 48m 08s
True Declination
0° 00' 00"
Sunlit
Object was in daylight at epoch
Visualization orbit readout
Latitude
Unknown
Longitude
Unknown
Altitude
Unknown
Speed
Unknown
Apparent Right ascension
Unknown
Apparent Declination
Unknown
Sunlit
N/A
Visualization observer readout
Local Sidereal Time
21:37:14
Azimuth
Unknown
Elevation
Unknown
Doppler factor
Unknown
Orbital elements
Apogee altitude
836.339 km
Perigee altitude
772.605 km
Semi-major axis
7,182.609 km
Eccentricity
0.00444
Inclination
98.7614°
RAAN
192.0354°
Arg. of periapsis
332.4352°
True anomaly
27.683°
Mean anomaly
27.4475°
Eccentric anomaly
27.56513°
Mean motion
3.56549 °/min
Orbital period
100.97 mins
BSTAR
0.0004686
Loading maneuver chart data...
Computing Atmospheric mass density...
Loading historical data...
Loading historical data...
Loading historical data...
Loading historical data...
Loading historical data...
Loading historical data...
Loading historical data...

Documentation

Showing up to 5 results
|